QPF
0.01 0.02 0.03 0.03 0.03 0.03 0.05 0.05 0.06 0.09 0.09 0.11 0.17 0.16 0.18 0.18 0.16 0.13 0.14 0.10 0.06 0.03 0.01 0.01 0.00 0.00 0.00 0.00 0.00 0.00 0.00 0.00 0.00 0.00 0.00 0.00 0.00 0.00 0.00 0.00 0.00 0.00 0.00
0.02 0.02 0.03 0.04 0.04 0.04 0.05 0.05 0.06 0.07 0.07 0.08 0.13 0.16 0.14 0.14 0.16 0.15 0.13 0.13 0.09 0.06 0.03 0.01 0.00 0.00 0.00 0.00 0.00 0.00 0.00 0.00 0.00 0.00 0.00 0.00 0.00 0.00 0.00 0.00 0.00 0.00 0.00
0.03 0.02 0.02 0.03 0.06 0.06 0.05 0.05 0.06 0.06 0.07 0.07 0.11 0.16 0.18 0.16 0.15 0.17 0.13 0.10 0.08 0.07 0.04 0.02 0.01 0.00 0.00 0.00 0.00 0.00 0.00 0.00 0.00 0.00 0.00 0.00 0.00 0.00 0.00 0.00 0.00 0.00 0.00
0.02 0.02 0.01 0.02 0.05 0.06 0.07 0.06 0.08 0.08 0.07 0.07 0.11 0.13 0.15 0.16 0.13 0.13 0.13 0.09 0.06 0.04 0.04 0.03 0.01 0.00 0.00 0.00 0.00 0.00 0.00 0.00 0.00 0.00 0.00 0.00 0.00 0.00 0.00 0.00 0.00 0.00 0.00
0.02 0.01 0.01 0.01 0.03 0.06 0.07 0.07 0.08 0.09 0.07 0.07 0.10 0.11 0.11 0.12 0.13 0.13 0.12 0.10 0.06 0.04 0.02 0.02 0.01 0.01 0.00 0.00 0.00 0.00 0.00 0.00 0.00 0.00 0.00 0.00 0.00 0.00 0.00 0.00 0.00 0.00 0.00
0.01 0.01 0.01 0.01 0.03 0.05 0.06 0.07 0.08 0.10 0.10 0.08 0.10 0.10 0.10 0.09 0.11 0.13 0.15 0.12 0.08 0.04 0.02 0.01 0.01 0.01 0.00 0.00 0.00 0.00 0.00 0.00 0.00 0.00 0.00 0.00 0.00 0.00 0.00 0.00 0.00 0.00 0.00
0.01 0.01 0.01 0.01 0.02 0.04 0.05 0.06 0.07 0.10 0.12 0.09 0.09 0.10 0.09 0.09 0.09 0.10 0.13 0.14 0.11 0.07 0.04 0.02 0.01 0.02 0.01 0.00 0.00 0.00 0.00 0.00 0.00 0.00 0.00 0.00 0.00 0.00 0.00 0.00 0.00 0.00 0.00
0.01 0.02 0.01 0.01 0.02 0.04 0.06 0.07 0.07 0.09 0.11 0.10 0.09 0.10 0.09 0.09 0.08 0.08 0.09 0.11 0.09 0.08 0.06 0.04 0.02 0.01 0.02 0.01 0.00 0.00 0.00 0.00 0.00 0.00 0.00 0.00 0.00 0.00 0.00 0.00 0.00 0.00 0.00
0.01 0.02 0.02 0.02 0.02 0.03 0.05 0.07 0.08 0.10 0.12 0.09 0.09 0.10 0.10 0.10 0.09 0.08 0.07 0.08 0.06 0.05 0.05 0.05 0.04 0.02 0.02 0.01 0.01 0.00 0.00 0.00 0.00 0.00 0.00 0.00 0.00 0.00 0.00 0.00 0.00 0.00 0.00
0.02 0.02 0.02 0.02 0.03 0.04 0.04 0.04 0.08 0.10 0.12 0.10 0.09 0.11 0.11 0.11 0.10 0.10 0.08 0.07 0.05 0.03 0.04 0.05 0.04 0.03 0.02 0.01 0.01 0.00 0.00 0.00 0.00 0.00 0.00 0.00 0.00 0.00 0.00 0.00 0.00 0.00 0.00
0.01 0.02 0.02 0.02 0.03 0.05 0.04 0.04 0.06 0.10 0.12 0.10 0.09 0.11 0.13 0.12 0.12 0.11 0.10 0.08 0.05 0.02 0.02 0.04 0.04 0.03 0.02 0.02 0.01 0.00 0.00 0.00 0.00 0.00 0.00 0.00 0.00 0.00 0.00 0.00 0.00 0.00 0.00
0.01 0.01 0.02 0.02 0.03 0.05 0.05 0.04 0.04 0.08 0.12 0.12 0.10 0.12 0.15 0.12 0.12 0.11 0.11 0.10 0.07 0.04 0.02 0.02 0.03 0.03 0.03 0.02 0.02 0.01 0.00 0.00 0.00 0.00 0.00 0.00 0.00 0.00 0.00 0.00 0.00 0.00 0.00
0.01 0.01 0.01 0.01 0.02 0.04 0.05 0.04 0.04 0.06 0.10 0.13 0.13 0.14 0.15 0.13 0.10 0.10 0.10 0.10 0.08 0.05 0.03 0.01 0.02 0.02 0.02 0.02 0.03 0.03 0.01 0.00 0.00 0.00 0.00 0.00 0.00 0.00 0.00 0.00 0.00 0.00 0.00
0.00 0.01 0.01 0.01 0.02 0.03 0.04 0.05 0.03 0.05 0.09 0.14 0.16 0.17 0.16 0.13 0.10 0.09 0.08 0.09 0.08 0.07 0.05 0.02 0.02 0.01 0.02 0.02 0.02 0.03 0.03 0.02 0.01 0.01 0.00 0.00 0.00 0.00 0.00 0.00 0.00 0.00 0.01
0.00 0.01 0.01 0.01 0.02 0.03 0.03 0.04 0.04 0.04 0.06 0.12 0.16 0.18 0.19 0.15 0.12 0.09 0.08 0.07 0.07 0.08 0.07 0.04 0.02 0.02 0.02 0.02 0.02 0.03 0.03 0.03 0.03 0.02 0.01 0.01 0.00 0.00 0.00 0.00 0.00 0.00 0.01
0.00 0.00 0.01 0.01 0.01 0.02 0.03 0.03 0.04 0.04 0.05 0.10 0.12 0.14 0.20 0.21 0.17 0.12 0.08 0.07 0.07 0.08 0.08 0.06 0.04 0.03 0.02 0.02 0.02 0.03 0.03 0.04 0.03 0.03 0.02 0.02 0.01 0.01 0.00 0.00 0.00 0.01 0.01
0.00 0.00 0.00 0.01 0.01 0.01 0.02 0.03 0.03 0.03 0.04 0.07 0.09 0.10 0.15 0.20 0.20 0.15 0.09 0.06 0.06 0.08 0.09 0.08 0.05 0.03 0.02 0.02 0.02 0.03 0.03 0.03 0.03 0.03 0.03 0.02 0.02 0.02 0.01 0.01 0.01 0.01 0.02
0.00 0.00 0.00 0.00 0.00 0.01 0.01 0.03 0.03 0.03 0.03 0.04 0.07 0.08 0.11 0.15 0.16 0.16 0.12 0.06 0.05 0.07 0.09 0.08 0.07 0.04 0.02 0.02 0.02 0.02 0.03 0.04 0.04 0.03 0.03 0.03 0.02 0.02 0.02 0.01 0.01 0.02 0.02
0.00 0.00 0.00 0.00 0.00 0.00 0.01 0.02 0.03 0.03 0.03 0.03 0.04 0.05 0.09 0.12 0.13 0.12 0.12 0.08 0.05 0.05 0.07 0.09 0.09 0.06 0.03 0.02 0.02 0.03 0.03 0.03 0.04 0.04 0.03 0.03 0.03 0.03 0.03 0.02 0.02 0.01 0.01
0.00 0.00 0.00 0.00 0.00 0.00 0.00 0.01 0.02 0.02 0.03 0.02 0.02 0.03 0.05 0.09 0.11 0.09 0.08 0.07 0.05 0.05 0.05 0.06 0.08 0.08 0.05 0.03 0.03 0.03 0.03 0.03 0.03 0.03 0.03 0.04 0.04 0.04 0.03 0.02 0.02 0.02 0.01
0.00 0.00 0.00 0.00 0.00 0.00 0.00 0.00 0.01 0.01 0.02 0.02 0.02 0.02 0.02 0.05 0.08 0.07 0.06 0.06 0.04 0.05 0.05 0.05 0.06 0.07 0.07 0.06 0.04 0.04 0.04 0.03 0.03 0.04 0.03 0.04 0.04 0.04 0.04 0.03 0.02 0.02 0.02
0.00 0.00 0.00 0.00 0.00 0.00 0.00 0.00 0.00 0.01 0.02 0.02 0.02 0.02 0.02 0.03 0.05 0.06 0.05 0.05 0.04 0.04 0.06 0.06 0.06 0.06 0.07 0.07 0.06 0.05 0.05 0.04 0.03 0.03 0.03 0.04 0.05 0.05 0.05 0.05 0.04 0.03 0.03
0.00 0.00 0.00 0.01 0.00 0.00 0.00 0.00 0.00 0.01 0.01 0.02 0.02 0.02 0.02 0.02 0.03 0.05 0.05 0.04 0.04 0.05 0.06 0.06 0.06 0.06 0.08 0.10 0.09 0.07 0.07 0.06 0.05 0.03 0.03 0.04 0.05 0.05 0.05 0.06 0.06 0.05 0.05
0.00 0.00 0.01 0.01 0.01 0.01 0.01 0.01 0.00 0.01 0.01 0.01 0.02 0.02 0.03 0.03 0.03 0.03 0.05 0.05 0.04 0.04 0.05 0.06 0.05 0.04 0.05 0.08 0.08 0.07 0.07 0.08 0.07 0.06 0.06 0.06 0.05 0.05 0.05 0.06 0.06 0.06 0.06
0.00 0.00 0.01 0.01 0.01 0.01 0.01 0.01 0.01 0.01 0.01 0.01 0.01 0.02 0.03 0.04 0.03 0.03 0.03 0.05 0.04 0.04 0.04 0.05 0.05 0.04 0.04 0.05 0.07 0.06 0.06 0.07 0.07 0.07 0.06 0.04 0.04 0.04 0.04 0.05 0.05 0.05 0.05
0.00 0.00 0.01 0.01 0.01 0.01 0.01 0.01 0.01 0.02 0.02 0.02 0.02 0.02 0.03 0.05 0.04 0.03 0.03 0.04 0.04 0.04 0.04 0.04 0.05 0.05 0.05 0.05 0.05 0.05 0.06 0.06 0.07 0.07 0.06 0.04 0.03 0.03 0.04 0.04 0.05 0.04 0.04
MSLP
1004.69 1004.06 1003.30 1002.45 1001.59 1000.81 1000.18 999.78 999.67 999.83 1000.25 1000.87 1001.62 1002.42 1003.22 1003.99 1004.72 1005.42 1006.12 1006.84 1007.59 1008.39 1009.21 1010.03 1010.83 1011.55 1012.19 1012.73 1013.18 1013.57 1013.91 1014.23 1014.54 1014.86 1015.17 1015.46 1015.72 1015.93 1016.09 1016.20 1016.27 1016.33 1016.39
1005.17 1004.60 1003.85 1002.97 1002.03 1001.13 1000.38 999.87 999.64 999.72 1000.07 1000.63 1001.34 1002.10 1002.87 1003.60 1004.29 1004.95 1005.61 1006.30 1007.04 1007.82 1008.64 1009.47 1010.27 1011.01 1011.66 1012.21 1012.69 1013.10 1013.47 1013.84 1014.20 1014.57 1014.94 1015.27 1015.55 1015.77 1015.91 1015.99 1016.01 1016.01 1016.02
1005.73 1005.27 1004.59 1003.70 1002.71 1001.71 1000.82 1000.15 999.78 999.72 999.95 1000.41 1001.04 1001.75 1002.48 1003.18 1003.84 1004.48 1005.13 1005.80 1006.53 1007.30 1008.11 1008.93 1009.72 1010.45 1011.09 1011.64 1012.12 1012.55 1012.95 1013.36 1013.77 1014.20 1014.61 1014.99 1015.31 1015.53 1015.66 1015.71 1015.69 1015.63 1015.58
1006.24 1005.94 1005.36 1004.52 1003.50 1002.42 1001.40 1000.57 1000.02 999.78 999.85 1000.18 1000.70 1001.33 1002.01 1002.69 1003.34 1003.99 1004.64 1005.32 1006.05 1006.82 1007.63 1008.43 1009.20 1009.90 1010.52 1011.06 1011.53 1011.96 1012.38 1012.82 1013.28 1013.75 1014.22 1014.63 1014.98 1015.22 1015.35 1015.38 1015.32 1015.23 1015.13
1006.61 1006.49 1006.05 1005.30 1004.29 1003.16 1002.04 1001.05 1000.31 999.88 999.76 999.93 1000.32 1000.85 1001.47 1002.12 1002.77 1003.44 1004.11 1004.82 1005.57 1006.36 1007.16 1007.95 1008.69 1009.37 1009.96 1010.48 1010.93 1011.36 1011.79 1012.25 1012.74 1013.25 1013.75 1014.21 1014.58 1014.85 1014.99 1015.01 1014.94 1014.83 1014.71
1006.79 1006.85 1006.57 1005.93 1004.98 1003.84 1002.64 1001.52 1000.62 1000.00 999.69 999.67 999.90 1000.32 1000.86 1001.48 1002.13 1002.81 1003.53 1004.27 1005.06 1005.87 1006.68 1007.46 1008.20 1008.85 1009.41 1009.91 1010.34 1010.76 1011.19 1011.66 1012.16 1012.69 1013.22 1013.71 1014.12 1014.41 1014.57 1014.62 1014.56 1014.46 1014.34
1006.78 1007.01 1006.89 1006.37 1005.51 1004.40 1003.17 1001.96 1000.92 1000.13 999.64 999.44 999.51 999.79 1000.23 1000.79 1001.42 1002.11 1002.85 1003.64 1004.46 1005.30 1006.14 1006.93 1007.66 1008.30 1008.85 1009.33 1009.75 1010.16 1010.58 1011.04 1011.55 1012.09 1012.63 1013.14 1013.58 1013.91 1014.11 1014.19 1014.18 1014.12 1014.04
1006.64 1006.99 1006.99 1006.60 1005.85 1004.80 1003.59 1002.35 1001.22 1000.30 999.65 999.28 999.17 999.31 999.63 1000.10 1000.68 1001.36 1002.10 1002.91 1003.76 1004.63 1005.49 1006.31 1007.05 1007.70 1008.25 1008.72 1009.13 1009.53 1009.94 1010.39 1010.89 1011.42 1011.97 1012.50 1012.96 1013.32 1013.58 1013.73 1013.79 1013.79 1013.78
1006.43 1006.83 1006.93 1006.65 1006.01 1005.06 1003.91 1002.69 1001.53 1000.53 999.75 999.23 998.96 998.93 999.11 999.46 999.96 1000.57 1001.29 1002.09 1002.95 1003.84 1004.73 1005.57 1006.33 1007.00 1007.56 1008.04 1008.46 1008.85 1009.25 1009.69 1010.17 1010.69 1011.24 1011.77 1012.25 1012.66 1012.98 1013.20 1013.35 1013.45 1013.53
1006.20 1006.60 1006.74 1006.54 1006.01 1005.18 1004.13 1002.99 1001.85 1000.82 999.96 999.32 998.91 998.72 998.73 998.93 999.30 999.81 1000.46 1001.22 1002.06 1002.95 1003.84 1004.70 1005.49 1006.19 1006.78 1007.29 1007.72 1008.12 1008.52 1008.94 1009.40 1009.91 1010.44 1010.97 1011.47 1011.92 1012.30 1012.60 1012.85 1013.05 1013.24
1005.99 1006.32 1006.45 1006.31 1005.88 1005.17 1004.27 1003.24 1002.18 1001.18 1000.29 999.57 999.03 998.68 998.51 998.54 998.75 999.12 999.66 1000.33 1001.12 1001.97 1002.86 1003.74 1004.55 1005.29 1005.92 1006.46 1006.92 1007.34 1007.74 1008.15 1008.60 1009.08 1009.60 1010.12 1010.63 1011.11 1011.55 1011.93 1012.27 1012.58 1012.87
1005.79 1006.02 1006.12 1006.00 1005.65 1005.08 1004.32 1003.44 1002.50 1001.57 1000.70 999.93 999.29 998.80 998.47 998.31 998.33 998.54 998.93 999.49 1000.18 1000.99 1001.85 1002.72 1003.55 1004.32 1004.99 1005.58 1006.08 1006.52 1006.94 1007.35 1007.79 1008.26 1008.75 1009.26 1009.78 1010.28 1010.76 1011.20 1011.63 1012.03 1012.42
1005.59 1005.70 1005.73 1005.62 1005.34 1004.90 1004.30 1003.58 1002.78 1001.96 1001.14 1000.36 999.65 999.04 998.55 998.22 998.05 998.08 998.30 998.72 999.31 1000.03 1000.84 1001.70 1002.54 1003.33 1004.05 1004.67 1005.22 1005.70 1006.14 1006.57 1007.01 1007.46 1007.94 1008.44 1008.95 1009.46 1009.97 1010.47 1010.95 1011.43 1011.91
1005.36 1005.36 1005.32 1005.20 1004.98 1004.64 1004.19 1003.64 1003.00 1002.30 1001.55 1000.79 1000.05 999.35 998.72 998.22 997.88 997.73 997.79 998.06 998.52 999.14 999.89 1000.71 1001.55 1002.36 1003.11 1003.78 1004.37 1004.90 1005.38 1005.83 1006.27 1006.72 1007.19 1007.68 1008.19 1008.71 1009.24 1009.77 1010.31 1010.84 1011.39
1005.08 1004.99 1004.89 1004.76 1004.58 1004.34 1004.02 1003.62 1003.12 1002.55 1001.89 1001.17 1000.41 999.64 998.92 998.29 997.79 997.48 997.38 997.50 997.83 998.35 999.03 999.80 1000.62 1001.43 1002.21 1002.92 1003.56 1004.13 1004.65 1005.14 1005.60 1006.07 1006.54 1007.03 1007.54 1008.07 1008.61 1009.17 1009.74 1010.33 1010.92
1004.76 1004.60 1004.45 1004.31 1004.17 1004.00 1003.79 1003.51 1003.14 1002.68 1002.11 1001.43 1000.68 999.88 999.09 998.35 997.73 997.28 997.04 997.02 997.23 997.65 998.24 998.96 999.75 1000.55 1001.35 1002.09 1002.78 1003.41 1003.98 1004.50 1005.01 1005.50 1006.00 1006.51 1007.03 1007.57 1008.14 1008.72 1009.32 1009.94 1010.58
1004.40 1004.20 1004.03 1003.88 1003.76 1003.65 1003.51 1003.33 1003.06 1002.68 1002.19 1001.56 1000.83 1000.02 999.18 998.37 997.66 997.11 996.75 996.61 996.71 997.02 997.53 998.18 998.93 999.72 1000.52 1001.30 1002.03 1002.71 1003.34 1003.93 1004.48 1005.03 1005.57 1006.11 1006.66 1007.24 1007.83 1008.44 1009.08 1009.74 1010.41
1004.03 1003.82 1003.64 1003.49 1003.38 1003.29 1003.20 1003.08 1002.88 1002.57 1002.13 1001.55 1000.84 1000.03 999.17 998.32 997.55 996.91 996.46 996.22 996.22 996.43 996.85 997.44 998.14 998.92 999.72 1000.53 1001.30 1002.04 1002.74 1003.40 1004.03 1004.64 1005.24 1005.84 1006.44 1007.07 1007.70 1008.36 1009.04 1009.73 1010.44
1003.65 1003.45 1003.27 1003.12 1003.02 1002.94 1002.88 1002.78 1002.62 1002.35 1001.95 1001.41 1000.72 999.93 999.06 998.19 997.37 996.68 996.15 995.82 995.72 995.85 996.19 996.71 997.37 998.12 998.93 999.76 1000.59 1001.40 1002.17 1002.92 1003.63 1004.33 1005.01 1005.68 1006.36 1007.05 1007.75 1008.46 1009.19 1009.92 1010.67
1003.26 1003.09 1002.92 1002.77 1002.66 1002.59 1002.52 1002.44 1002.30 1002.05 1001.68 1001.16 1000.50 999.72 998.86 997.98 997.13 996.39 995.79 995.39 995.21 995.25 995.51 995.97 996.59 997.32 998.15 999.01 999.90 1000.78 1001.65 1002.49 1003.30 1004.09 1004.87 1005.64 1006.40 1007.17 1007.94 1008.72 1009.50 1010.28 1011.05
1002.86 1002.71 1002.55 1002.40 1002.29 1002.21 1002.14 1002.05 1001.91 1001.68 1001.32 1000.83 1000.19 999.43 998.59 997.70 996.83 996.04 995.39 994.92 994.66 994.62 994.81 995.21 995.80 996.53 997.37 998.28 999.24 1000.20 1001.17 1002.11 1003.03 1003.93 1004.81 1005.68 1006.54 1007.39 1008.24 1009.08 1009.92 1010.74 1011.54
1002.41 1002.28 1002.13 1001.99 1001.87 1001.78 1001.70 1001.61 1001.47 1001.25 1000.91 1000.44 999.82 999.09 998.25 997.36 996.47 995.65 994.94 994.40 994.07 993.96 994.09 994.45 995.02 995.75 996.62 997.59 998.62 999.68 1000.75 1001.80 1002.84 1003.84 1004.83 1005.79 1006.74 1007.68 1008.60 1009.51 1010.40 1011.25 1012.07
1001.92 1001.80 1001.66 1001.52 1001.39 1001.30 1001.21 1001.12 1000.98 1000.77 1000.45 1000.00 999.41 998.69 997.87 996.97 996.07 995.21 994.45 993.86 993.46 993.30 993.38 993.71 994.27 995.03 995.94 996.98 998.09 999.25 1000.42 1001.58 1002.72 1003.82 1004.91 1005.96 1006.99 1008.00 1008.99 1009.95 1010.88 1011.77 1012.59
1001.37 1001.26 1001.12 1000.98 1000.86 1000.76 1000.68 1000.59 1000.47 1000.27 999.97 999.54 998.98 998.27 997.46 996.56 995.63 994.74 993.95 993.30 992.86 992.65 992.71 993.03 993.60 994.39 995.36 996.46 997.66 998.91 1000.18 1001.44 1002.67 1003.86 1005.03 1006.15 1007.25 1008.32 1009.36 1010.37 1011.33 1012.23 1013.06
1000.79 1000.68 1000.55 1000.42 1000.30 1000.21 1000.14 1000.06 999.94 999.76 999.48 999.07 998.53 997.84 997.02 996.12 995.18 994.27 993.44 992.77 992.29 992.07 992.12 992.45 993.05 993.88 994.91 996.09 997.37 998.70 1000.05 1001.39 1002.69 1003.95 1005.17 1006.35 1007.50 1008.61 1009.69 1010.73 1011.71 1012.63 1013.46
1000.21 1000.11 999.99 999.87 999.76 999.68 999.61 999.54 999.44 999.27 999.01 998.61 998.07 997.39 996.58 995.68 994.73 993.81 992.97 992.28 991.81 991.59 991.65 992.02 992.66 993.55 994.64 995.89 997.23 998.63 1000.04 1001.43 1002.78 1004.08 1005.33 1006.54 1007.72 1008.85 1009.95 1011.01 1012.01 1012.94 1013.77
Thickness
5608 5615 5620 5623 5626 5629 5634 5639 5643 5647 5650 5652 5657 5660 5663 5667 5670 5674 5677 5678 5677 5677 5677 5676 5676 5676 5675 5673 5673 5671 5669 5667 5666 5663 5660 5661 5662 5661 5660 5658 5656 5652 5649
5598 5607 5611 5614 5617 5622 5626 5631 5636 5641 5644 5647 5652 5656 5659 5662 5665 5668 5671 5673 5674 5673 5674 5673 5672 5672 5670 5669 5669 5668 5665 5663 5662 5658 5654 5652 5653 5655 5657 5654 5652 5649 5645
5589 5597 5602 5605 5609 5613 5619 5625 5631 5635 5638 5642 5645 5649 5650 5654 5657 5661 5664 5668 5670 5670 5670 5669 5668 5668 5667 5666 5665 5665 5662 5659 5657 5657 5654 5649 5647 5648 5650 5650 5648 5645 5641
5582 5587 5593 5597 5602 5607 5612 5618 5624 5629 5633 5637 5639 5642 5646 5650 5655 5658 5659 5662 5665 5666 5665 5665 5665 5664 5664 5663 5662 5662 5660 5657 5653 5652 5653 5652 5650 5645 5641 5642 5642 5640 5637
5575 5579 5584 5590 5596 5601 5605 5611 5617 5622 5628 5632 5636 5638 5643 5646 5650 5653 5653 5657 5660 5661 5662 5661 5661 5661 5660 5660 5659 5658 5657 5655 5652 5650 5648 5647 5645 5644 5638 5634 5634 5633 5632
5569 5573 5578 5582 5587 5593 5599 5604 5610 5616 5621 5627 5631 5635 5639 5643 5646 5648 5650 5653 5655 5657 5658 5658 5658 5657 5657 5657 5657 5655 5654 5652 5650 5648 5646 5644 5640 5638 5635 5631 5628 5626 5626
5561 5566 5569 5574 5579 5585 5592 5598 5604 5609 5615 5621 5627 5632 5637 5641 5645 5647 5649 5650 5652 5654 5655 5656 5655 5655 5654 5654 5653 5652 5651 5649 5647 5645 5643 5642 5640 5638 5634 5629 5624 5622 5620
5553 5558 5562 5567 5573 5579 5585 5591 5597 5603 5609 5615 5621 5627 5633 5637 5642 5645 5647 5649 5652 5653 5653 5652 5652 5651 5651 5650 5650 5649 5647 5646 5644 5642 5640 5638 5636 5634 5631 5626 5620 5614 5612
5546 5551 5555 5560 5567 5572 5579 5584 5591 5598 5603 5608 5614 5621 5628 5633 5638 5640 5643 5646 5649 5650 5650 5649 5648 5648 5647 5647 5646 5645 5644 5643 5641 5639 5637 5635 5632 5630 5627 5622 5617 5609 5603
5539 5543 5549 5554 5559 5565 5571 5578 5585 5591 5597 5602 5608 5616 5624 5629 5633 5636 5639 5642 5646 5648 5647 5645 5644 5644 5644 5643 5642 5642 5641 5639 5637 5635 5633 5631 5628 5625 5621 5617 5613 5607 5600
5530 5534 5540 5546 5552 5558 5563 5570 5576 5583 5590 5596 5603 5609 5617 5624 5629 5633 5636 5638 5641 5643 5644 5643 5642 5641 5641 5641 5639 5639 5637 5635 5633 5631 5629 5627 5624 5620 5616 5612 5607 5602 5596
5523 5527 5532 5537 5543 5549 5555 5562 5569 5576 5582 5590 5597 5605 5611 5618 5623 5628 5632 5634 5636 5639 5640 5640 5639 5639 5638 5637 5637 5635 5634 5632 5630 5628 5626 5623 5619 5615 5611 5607 5602 5597 5593
5514 5518 5523 5528 5534 5540 5546 5553 5561 5568 5575 5582 5590 5597 5603 5610 5616 5622 5626 5629 5632 5634 5636 5636 5636 5636 5635 5634 5634 5632 5631 5630 5628 5626 5623 5619 5615 5611 5607 5602 5597 5592 5587
5504 5507 5512 5518 5524 5530 5537 5544 5552 5559 5566 5573 5582 5590 5597 5603 5609 5615 5619 5623 5627 5629 5631 5633 5633 5632 5632 5631 5630 5629 5627 5625 5623 5621 5619 5616 5612 5608 5603 5598 5592 5587 5580
5496 5499 5502 5507 5514 5519 5526 5533 5542 5549 5556 5564 5573 5581 5589 5596 5603 5608 5613 5617 5620 5623 5625 5627 5627 5627 5627 5627 5626 5625 5622 5620 5617 5614 5613 5610 5608 5604 5599 5593 5587 5581 5574
5486 5489 5494 5498 5503 5508 5515 5522 5530 5539 5548 5556 5563 5571 5579 5587 5593 5598 5605 5609 5612 5615 5617 5620 5622 5622 5622 5623 5621 5620 5616 5614 5611 5608 5606 5603 5601 5597 5593 5588 5583 5576 5569
5476 5479 5483 5488 5493 5498 5504 5511 5519 5528 5536 5544 5552 5561 5568 5576 5582 5589 5595 5600 5604 5607 5610 5612 5615 5616 5617 5617 5615 5613 5610 5607 5605 5603 5599 5596 5593 5589 5584 5579 5574 5568 5563
5466 5469 5472 5477 5483 5488 5494 5500 5508 5516 5523 5532 5541 5550 5558 5565 5572 5580 5586 5592 5596 5600 5603 5605 5608 5610 5611 5610 5608 5605 5603 5601 5599 5597 5594 5590 5586 5582 5576 5570 5564 5558 5553
5457 5459 5463 5468 5473 5478 5484 5490 5497 5504 5513 5521 5529 5538 5547 5555 5562 5570 5577 5583 5588 5592 5596 5599 5601 5603 5603 5602 5600 5597 5595 5594 5592 5590 5587 5583 5579 5575 5569 5562 5556 5549 5544
5448 5450 5454 5458 5463 5468 5474 5479 5486 5494 5502 5509 5518 5527 5536 5544 5552 5560 5567 5574 5580 5584 5588 5591 5594 5596 5596 5595 5593 5591 5589 5587 5584 5582 5579 5576 5573 5567 5562 5556 5550 5543 5536
5439 5441 5444 5447 5452 5457 5463 5468 5475 5482 5491 5500 5508 5517 5526 5534 5542 5550 5558 5565 5570 5575 5578 5581 5585 5587 5589 5587 5586 5585 5584 5581 5578 5575 5572 5569 5565 5560 5555 5550 5545 5540 5531
5430 5432 5433 5436 5441 5447 5452 5458 5464 5472 5481 5490 5499 5507 5515 5524 5533 5540 5548 5554 5560 5564 5568 5572 5575 5578 5580 5580 5579 5579 5577 5575 5571 5568 5565 5561 5556 5552 5546 5541 5537 5530 5522
5420 5422 5423 5427 5431 5436 5442 5448 5454 5461 5470 5479 5488 5496 5505 5513 5522 5530 5537 5543 5549 5554 5558 5562 5565 5567 5569 5571 5571 5570 5568 5566 5563 5560 5557 5552 5547 5541 5536 5532 5526 5520 5513
5411 5413 5415 5418 5421 5426 5431 5437 5444 5450 5459 5467 5476 5485 5494 5502 5511 5519 5527 5533 5539 5543 5548 5552 5555 5557 5559 5561 5560 5559 5557 5555 5552 5549 5545 5540 5536 5531 5526 5521 5515 5511 5506
5402 5404 5405 5409 5412 5417 5421 5427 5433 5440 5447 5456 5465 5474 5483 5492 5501 5509 5516 5523 5530 5535 5539 5543 5546 5549 5551 5552 5552 5552 5550 5547 5544 5539 5533 5528 5524 5519 5515 5510 5505 5501 5496
5393 5395 5397 5400 5404 5408 5413 5417 5423 5429 5436 5444 5454 5463 5472 5481 5489 5497 5504 5512 5519 5524 5529 5534 5538 5542 5543 5542 5542 5543 5542 5539 5535 5531 5526 5522 5518 5513 5508 5503 5497 5492 5488